When you browse on this site, cookies collect data to enhance your experience and personalize the content and advertising you see.
Visit our Privacy Policy to learn more. By continuing to use the site, you agree to this use of cookies and data.
  • In Deutschland
  • Länderverzeichnis
  • Für 7 Tage
  • Wassertemperatur
  • Wetterkarte
  • Widgets
  • user-avatar
    Anmelden

    Stündliche Wetter Graz

    Heute, 7 Juni, Sonntag

    Zeit Temperatur Niederschläge Wind Luftdruck Luftfeuchtigkeit
    00:00 +15°C° 0 mm 1 m/S 717 mmHg 93%
    01:00 +15°C° 0 mm 1 m/S 717 mmHg 93%
    02:00 +15°C° 0.1 mm 1 m/S 717 mmHg 94%
    03:00 +15°C° 0.1 mm 1 m/S 717 mmHg 94%
    04:00 +13°C° 0.1 mm 0 m/S 717 mmHg 94%
    05:00 +16°C° 0 mm 1 m/S 717 mmHg 91%
    06:00 +18°C° 0 mm 1 m/S 717 mmHg 88%
    07:00 +19°C° 0 mm 1 m/S 717 mmHg 85%
    08:00 +20°C° 0.1 mm 1 m/S 717 mmHg 84%
    09:00 +20°C° 0.1 mm 1 m/S 717 mmHg 83%
    10:00 +20°C° 0.1 mm 2 m/S 717 mmHg 81%
    11:00 +21°C° 0.6 mm 2 m/S 717 mmHg 77%
    12:00 +23°C° 0.6 mm 1 m/S 717 mmHg 73%
    13:00 +24°C° 0.6 mm 1 m/S 717 mmHg 69%
    14:00 +24°C° 0.7 mm 1 m/S 717 mmHg 68%
    15:00 +25°C° 0.7 mm 2 m/S 716 mmHg 67%
    16:00 +25°C° 0.7 mm 2 m/S 716 mmHg 66%
    17:00 +23°C° 0.3 mm 2 m/S 716 mmHg 70%
    18:00 +22°C° 0.3 mm 1 m/S 717 mmHg 74%
    19:00 +21°C° 0.3 mm 1 m/S 717 mmHg 79%
    20:00 +19°C° 0.3 mm 2 m/S 717 mmHg 81%
    21:00 +18°C° 0.3 mm 2 m/S 718 mmHg 84%
    22:00 +17°C° 0.3 mm 2 m/S 718 mmHg 87%
    23:00 +15°C° 0 mm 2 m/S 718 mmHg 87%

    Morgen, 8 Juni, Montag

    Zeit Temperatur Niederschläge Wind Luftdruck Luftfeuchtigkeit
    00:00 +14°C° 0 mm 2 m/S 718 mmHg 88%
    01:00 +13°C° 0 mm 2 m/S 718 mmHg 88%
    02:00 +13°C° 0.1 mm 2 m/S 718 mmHg 88%
    03:00 +13°C° 0.1 mm 1 m/S 719 mmHg 87%
    04:00 +13°C° 0.1 mm 1 m/S 719 mmHg 87%
    05:00 +13°C° 0.6 mm 1 m/S 719 mmHg 87%
    06:00 +13°C° 0.6 mm 1 m/S 719 mmHg 88%
    07:00 +13°C° 0.6 mm 1 m/S 719 mmHg 89%
    08:00 +14°C° 0.7 mm 1 m/S 720 mmHg 88%
    09:00 +14°C° 0.7 mm 1 m/S 720 mmHg 87%
    10:00 +14°C° 0.7 mm 1 m/S 720 mmHg 86%
    11:00 +14°C° 0.5 mm 1 m/S 720 mmHg 88%
    12:00 +14°C° 0.5 mm 1 m/S 720 mmHg 90%
    13:00 +14°C° 0.5 mm 1 m/S 720 mmHg 91%
    14:00 +15°C° 0.1 mm 1 m/S 720 mmHg 87%
    15:00 +16°C° 0.1 mm 1 m/S 720 mmHg 82%
    16:00 +16°C° 0.1 mm 0 m/S 720 mmHg 78%
    17:00 +16°C° 0 mm 0 m/S 720 mmHg 80%
    18:00 +15°C° 0 mm 0 m/S 720 mmHg 83%
    19:00 +15°C° 0 mm 0 m/S 720 mmHg 85%
    20:00 +15°C° 0.1 mm 0 m/S 720 mmHg 86%
    21:00 +14°C° 0.1 mm 0 m/S 720 mmHg 88%
    22:00 +14°C° 0.1 mm 0 m/S 721 mmHg 89%
    23:00 +14°C° 0 mm 0 m/S 720 mmHg 90%

    übermorgen, 9 Juni, Dienstag

    Zeit Temperatur Niederschläge Wind Luftdruck Luftfeuchtigkeit
    00:00 +13°C° 0 mm 0 m/S 720 mmHg 90%
    01:00 +13°C° 0 mm 0 m/S 720 mmHg 91%
    02:00 +13°C° 0 mm 0 m/S 720 mmHg 91%
    03:00 +13°C° 0 mm 0 m/S 720 mmHg 92%
    04:00 +13°C° 0 mm 0 m/S 720 mmHg 92%
    05:00 +13°C° 0.3 mm 0 m/S 720 mmHg 91%
    06:00 +14°C° 0.3 mm 0 m/S 720 mmHg 90%
    07:00 +14°C° 0.3 mm 0 m/S 721 mmHg 89%
    08:00 +14°C° 0.7 mm 0 m/S 721 mmHg 90%
    09:00 +14°C° 0.7 mm 0 m/S 721 mmHg 92%
    10:00 +15°C° 0.7 mm 1 m/S 721 mmHg 93%
    11:00 +15°C° 0.4 mm 1 m/S 721 mmHg 91%
    12:00 +16°C° 0.4 mm 1 m/S 721 mmHg 89%
    13:00 +16°C° 0.4 mm 1 m/S 721 mmHg 87%
    14:00 +18°C° 0.1 mm 1 m/S 720 mmHg 85%
    15:00 +18°C° 0.1 mm 1 m/S 720 mmHg 82%
    16:00 +19°C° 0.1 mm 1 m/S 720 mmHg 80%
    17:00 +18°C° 0.1 mm 1 m/S 720 mmHg 82%
    18:00 +16°C° 0.1 mm 0 m/S 720 mmHg 84%
    19:00 +16°C° 0.1 mm 0 m/S 720 mmHg 86%
    20:00 +15°C° 0 mm 0 m/S 720 mmHg 86%
    21:00 +15°C° 0 mm 0 m/S 720 mmHg 87%
    22:00 +14°C° 0 mm 0 m/S 721 mmHg 88%
    23:00 +15°C° 0 mm 1 m/S 720 mmHg 89%

    10 Juni, Mittwoch

    Zeit Temperatur Niederschläge Wind Luftdruck Luftfeuchtigkeit
    00:00 +14°C° 0 mm 1 m/S 720 mmHg 90%
    01:00 +14°C° 0 mm 1 m/S 720 mmHg 91%
    02:00 +14°C° 0.1 mm 1 m/S 720 mmHg 91%
    03:00 +14°C° 0.1 mm 1 m/S 720 mmHg 92%
    04:00 +14°C° 0.1 mm 1 m/S 720 mmHg 92%
    05:00 +15°C° 0.4 mm 1 m/S 720 mmHg 92%
    06:00 +14°C° 0.4 mm 0 m/S 720 mmHg 92%
    07:00 +14°C° 0.4 mm 0 m/S 720 mmHg 92%
    08:00 +15°C° 0.9 mm 0 m/S 720 mmHg 93%
    09:00 +15°C° 0.9 mm 0 m/S 720 mmHg 93%
    10:00 +15°C° 0.9 mm 0 m/S 720 mmHg 94%
    11:00 +15°C° 0.7 mm 0 m/S 720 mmHg 94%
    12:00 +15°C° 0.7 mm 0 m/S 720 mmHg 94%
    13:00 +15°C° 0.7 mm 0 m/S 719 mmHg 93%
    14:00 +15°C° 0.5 mm 0 m/S 719 mmHg 93%
    15:00 +15°C° 0.5 mm 0 m/S 719 mmHg 93%
    16:00 +15°C° 0.5 mm 0 m/S 719 mmHg 93%
    17:00 +15°C° 0.4 mm 0 m/S 719 mmHg 93%
    18:00 +16°C° 0.4 mm 1 m/S 719 mmHg 93%
    19:00 +16°C° 0.4 mm 1 m/S 719 mmHg 93%
    20:00 +15°C° 0.1 mm 1 m/S 719 mmHg 93%
    21:00 +15°C° 0.1 mm 1 m/S 719 mmHg 94%
    22:00 +14°C° 0.1 mm 1 m/S 719 mmHg 94%
    23:00 +14°C° 0.1 mm 1 m/S 719 mmHg 94%

    11 Juni, Donnerstag

    Zeit Temperatur Niederschläge Wind Luftdruck Luftfeuchtigkeit
    00:00 +14°C° 0.1 mm 1 m/S 718 mmHg 94%
    01:00 +14°C° 0.1 mm 1 m/S 718 mmHg 94%
    02:00 +14°C° 0.1 mm 1 m/S 718 mmHg 94%
    03:00 +14°C° 0.1 mm 1 m/S 718 mmHg 93%
    04:00 +14°C° 0.1 mm 1 m/S 718 mmHg 93%
    05:00 +14°C° 0.2 mm 1 m/S 718 mmHg 93%
    06:00 +14°C° 0.2 mm 1 m/S 718 mmHg 92%
    07:00 +14°C° 0.2 mm 0 m/S 718 mmHg 91%
    08:00 +14°C° 0.2 mm 0 m/S 718 mmHg 90%
    09:00 +15°C° 0.2 mm 0 m/S 718 mmHg 89%
    10:00 +15°C° 0.2 mm 0 m/S 718 mmHg 87%
    11:00 +16°C° 0.2 mm 0 m/S 718 mmHg 83%
    12:00 +17°C° 0.2 mm 0 m/S 718 mmHg 80%
    13:00 +20°C° 0.2 mm 1 m/S 718 mmHg 76%
    14:00 +21°C° 0.3 mm 1 m/S 718 mmHg 72%
    15:00 +22°C° 0.3 mm 1 m/S 718 mmHg 68%
    16:00 +23°C° 0.3 mm 1 m/S 718 mmHg 64%
    17:00 +20°C° 0.4 mm 0 m/S 718 mmHg 70%
    18:00 +18°C° 0.4 mm 0 m/S 717 mmHg 77%
    19:00 +17°C° 0.4 mm 0 m/S 717 mmHg 83%
    20:00 +16°C° 0 mm 0 m/S 717 mmHg 86%
    21:00 +15°C° 0 mm 0 m/S 718 mmHg 88%
    22:00 +13°C° 0 mm 0 m/S 718 mmHg 91%
    23:00 +13°C° 0 mm 0 m/S 717 mmHg 91%

    12 Juni, Freitag

    Zeit Temperatur Niederschläge Wind Luftdruck Luftfeuchtigkeit
    00:00 +14°C° 0 mm 1 m/S 717 mmHg 92%
    01:00 +13°C° 0 mm 1 m/S 717 mmHg 92%
    02:00 +13°C° 0 mm 1 m/S 717 mmHg 93%
    03:00 +13°C° 0 mm 1 m/S 717 mmHg 93%
    04:00 +12°C° 0 mm 1 m/S 716 mmHg 93%
    05:00 +14°C° 0 mm 1 m/S 717 mmHg 89%
    06:00 +15°C° 0 mm 0 m/S 717 mmHg 85%
    07:00 +17°C° 0 mm 0 m/S 717 mmHg 81%
    08:00 +21°C° 0 mm 1 m/S 717 mmHg 71%
    09:00 +23°C° 0 mm 1 m/S 717 mmHg 62%
    10:00 +25°C° 0 mm 1 m/S 717 mmHg 53%
    11:00 +25°C° 0.1 mm 1 m/S 717 mmHg 51%
    12:00 +26°C° 0.1 mm 2 m/S 717 mmHg 50%
    13:00 +26°C° 0.1 mm 2 m/S 717 mmHg 48%
    14:00 +26°C° 0.4 mm 2 m/S 717 mmHg 51%
    15:00 +26°C° 0.4 mm 2 m/S 717 mmHg 53%
    16:00 +26°C° 0.4 mm 2 m/S 717 mmHg 56%
    17:00 +24°C° 0.5 mm 2 m/S 718 mmHg 63%
    18:00 +23°C° 0.5 mm 2 m/S 718 mmHg 70%
    19:00 +21°C° 0.5 mm 1 m/S 718 mmHg 77%
    20:00 +18°C° 0.3 mm 2 m/S 718 mmHg 82%
    21:00 +16°C° 0.3 mm 2 m/S 719 mmHg 86%
    22:00 +14°C° 0.3 mm 2 m/S 719 mmHg 91%
    23:00 +14°C° 0 mm 2 m/S 719 mmHg 90%
    Mehr zeigen